Flag for Germany Weather past 2 weeks in Leer, Lower Saxony, Germany

Now
44 °F

Overcast.


Feels Like: 38 °F
Forecast: 29 / 36 °F
Wind: 12 mph from Northwest

Location: Emden-Koenigspolder

Current Time: Dec 25, 2014 at 9:43:40 AM

Latest Report: Dec 25, 2014 at 9:00 AM


Visibility: 28 mi

Pressure: 29.97 "Hg

Humidity: 65%

Dew point: 33 °F

Location of LeerLocation

Historic Weather in Leer — Graph

°F

Leer temperature yesterday

Maximum temperature yesterday: 50 °F (at 12:00 AM)
Minimum temperature yesterday: 42 °F (at 7:00 PM)
Average temperature yesterday: 46 °F

Past Weeks' High & Low Weather Summary

 TemperatureHumidityPressure
High54 °F (Dec 22, 12:00 PM)100% (Dec 14, 3:00 AM)30.23 "Hg (Dec 14, 3:00 AM)
Low34 °F (Dec 14, 3:00 AM)71% (Dec 10, 3:00 PM)29.12 "Hg (Dec 12, 12:00 PM)
Average44 °F86%29.75 "Hg
* Reported Dec 10 8:00 AM — Dec 25 8:00 AM, Leer, Weather by CustomWeather, © 2014

Note: Actual official high and low records may vary slightly from our data, if they occured in-between our weather recording intervals... More about our weather records

Advertising

Leer weather history for previous 24 hours

 ConditionsComfort  
Time TempWeatherWind HumidityBarometerVisibility
8:00 AM
Dec 25
44 °FOvercast.10 mph72%29.94 "Hg19 mi
7:00 AM42 °FOvercast.9 mph87%29.92 "Hg18 mi
6:00 AM43 °FPassing clouds.10 mph82%29.90 "Hg19 mi
5:00 AM43 °FLow clouds.12 mph84%29.90 "Hg17 mi
3:00 AM44 °FOvercast.8 mph80%29.90 "Hg18 mi
2:00 AM44 °FOvercast.7 mph79%29.92 "Hg18 mi
1:00 AM44 °FOvercast.7 mph78%29.92 "Hg19 mi
12:00 AM42 °FClear.N/A79%29.92 "Hg19 mi
11:00 PM
Dec 24
42 °FPassing clouds.6 mph79%29.91 "Hg22 mi
9:00 PM42 °FPassing clouds.N/A78%29.90 "Hg19 mi
8:00 PM42 °FClear.N/A79%29.89 "Hg25 mi
7:00 PM42 °FPassing clouds.6 mph81%29.89 "Hg28 mi
6:00 PM43 °FPassing clouds.6 mph81%29.87 "Hg28 mi
5:00 PM44 °FPassing clouds.7 mph76%29.85 "Hg28 mi
3:00 PM46 °FPassing clouds.10 mph75%29.82 "Hg16 mi
2:00 PM47 °FPassing clouds.12 mph76%29.81 "Hg17 mi
1:00 PM48 °FPassing clouds.2 mph83%29.79 "Hg2 mi
12:00 PM48 °FOvercast.9 mph80%29.78 "Hg34 mi
11:00 AM48 °FOvercast.9 mph86%29.78 "Hg25 mi
9:00 AM49 °FLight freezing rain. Low clouds.N/A96%29.72 "Hg2 mi
Weather by CustomWeather, © 2014

See weather overviewHow to use our weather pages